• In India
  • List of Countries
  • For 7 days
  • Water Temperature
  • Satellite Maps
  • Weather Map
  • Weather Widgets
  • user-avatar
    Login

    Hourly Weather Hobart

    Today, 21 November, Tuesday

    Time Temperature Precipitation Wind Pressure Humidity
    00:00 +16°C° 0 mm 2 mps 754 mmHg 76%
    01:00 +16°C° 0 mm 2 mps 753 mmHg 78%
    02:00 +15°C° 0 mm 2 mps 753 mmHg 79%
    03:00 +15°C° 0 mm 2 mps 753 mmHg 80%
    04:00 +13°C° 0 mm 3 mps 753 mmHg 82%
    05:00 +17°C° 0 mm 2 mps 754 mmHg 73%
    06:00 +19°C° 0 mm 2 mps 754 mmHg 64%
    07:00 +21°C° 0 mm 2 mps 754 mmHg 55%
    08:00 +25°C° 0 mm 2 mps 754 mmHg 47%
    09:00 +27°C° 0 mm 2 mps 754 mmHg 39%
    10:00 +30°C° 0 mm 2 mps 754 mmHg 30%
    11:00 +31°C° 0 mm 2 mps 753 mmHg 28%
    12:00 +33°C° 0 mm 3 mps 753 mmHg 25%
    13:00 +34°C° 0 mm 3 mps 753 mmHg 22%
    14:00 +33°C° 0 mm 3 mps 752 mmHg 24%
    15:00 +31°C° 0 mm 3 mps 752 mmHg 25%
    16:00 +32°C° 0 mm 4 mps 752 mmHg 27%
    17:00 +28°C° 0 mm 3 mps 752 mmHg 37%
    18:00 +26°C° 0 mm 3 mps 752 mmHg 47%
    19:00 +22°C° 0 mm 3 mps 752 mmHg 57%
    20:00 +21°C° 0 mm 2 mps 752 mmHg 63%
    21:00 +19°C° 0 mm 2 mps 752 mmHg 69%
    22:00 +17°C° 0 mm 2 mps 752 mmHg 75%
    23:00 +17°C° 0 mm 2 mps 752 mmHg 76%

    Tomorrow, 22 November, Wednesday

    Time Temperature Precipitation Wind Pressure Humidity
    00:00 +17°C° 0 mm 2 mps 752 mmHg 77%
    01:00 +16°C° 0 mm 2 mps 752 mmHg 77%
    02:00 +16°C° 0 mm 2 mps 751 mmHg 77%
    03:00 +16°C° 0 mm 2 mps 751 mmHg 77%
    04:00 +16°C° 0 mm 2 mps 751 mmHg 77%
    05:00 +18°C° 0 mm 2 mps 751 mmHg 69%
    06:00 +20°C° 0 mm 2 mps 751 mmHg 61%
    07:00 +23°C° 0 mm 2 mps 751 mmHg 53%
    08:00 +26°C° 0 mm 2 mps 751 mmHg 46%
    09:00 +29°C° 0 mm 2 mps 751 mmHg 39%
    10:00 +32°C° 0 mm 2 mps 751 mmHg 31%
    11:00 +33°C° 0 mm 3 mps 751 mmHg 30%
    12:00 +33°C° 0 mm 3 mps 750 mmHg 29%
    13:00 +33°C° 0 mm 3 mps 750 mmHg 28%
    14:00 +31°C° 0 mm 3 mps 750 mmHg 31%
    15:00 +30°C° 0 mm 3 mps 749 mmHg 34%
    16:00 +29°C° 0 mm 3 mps 749 mmHg 37%
    17:00 +27°C° 0 mm 3 mps 749 mmHg 44%
    18:00 +25°C° 0 mm 3 mps 749 mmHg 51%
    19:00 +23°C° 0 mm 2 mps 749 mmHg 59%
    20:00 +20°C° 0 mm 2 mps 750 mmHg 64%
    21:00 +19°C° 0 mm 2 mps 750 mmHg 70%
    22:00 +18°C° 0 mm 1 mps 750 mmHg 76%
    23:00 +17°C° 0 mm 2 mps 750 mmHg 76%

    Day after tomorrow, 23 November, Thursday

    Time Temperature Precipitation Wind Pressure Humidity
    00:00 +16°C° 0 mm 2 mps 749 mmHg 77%
    01:00 +16°C° 0 mm 2 mps 749 mmHg 77%
    02:00 +16°C° 0 mm 2 mps 749 mmHg 79%
    03:00 +15°C° 0 mm 2 mps 748 mmHg 80%
    04:00 +14°C° 0 mm 3 mps 748 mmHg 82%
    05:00 +17°C° 0 mm 3 mps 748 mmHg 74%
    06:00 +19°C° 0 mm 3 mps 748 mmHg 67%
    07:00 +21°C° 0 mm 3 mps 748 mmHg 59%
    08:00 +25°C° 0 mm 3 mps 748 mmHg 49%
    09:00 +27°C° 0 mm 3 mps 748 mmHg 38%
    10:00 +30°C° 0 mm 3 mps 748 mmHg 28%
    11:00 +31°C° 0 mm 3 mps 748 mmHg 27%
    12:00 +32°C° 0 mm 4 mps 747 mmHg 26%
    13:00 +33°C° 0 mm 4 mps 747 mmHg 26%
    14:00 +30°C° 0.1 mm 4 mps 747 mmHg 31%
    15:00 +29°C° 0.1 mm 3 mps 746 mmHg 37%
    16:00 +27°C° 0.1 mm 3 mps 746 mmHg 43%
    17:00 +25°C° 0.2 mm 3 mps 746 mmHg 53%
    18:00 +23°C° 0.2 mm 2 mps 746 mmHg 63%
    19:00 +20°C° 0.2 mm 2 mps 746 mmHg 72%
    20:00 +20°C° 0.2 mm 1 mps 747 mmHg 77%
    21:00 +18°C° 0.2 mm 1 mps 747 mmHg 82%
    22:00 +16°C° 0.2 mm 1 mps 747 mmHg 87%
    23:00 +15°C° 0.1 mm 1 mps 746 mmHg 87%

    24 November, Friday

    Time Temperature Precipitation Wind Pressure Humidity
    00:00 +15°C° 0.1 mm 1 mps 746 mmHg 88%
    01:00 +15°C° 0.1 mm 1 mps 746 mmHg 88%
    02:00 +14°C° 0 mm 1 mps 745 mmHg 89%
    03:00 +14°C° 0 mm 1 mps 745 mmHg 90%
    04:00 +14°C° 0 mm 1 mps 745 mmHg 91%
    05:00 +16°C° 0 mm 1 mps 746 mmHg 84%
    06:00 +19°C° 0 mm 1 mps 746 mmHg 76%
    07:00 +21°C° 0 mm 1 mps 746 mmHg 69%
    08:00 +23°C° 0 mm 2 mps 747 mmHg 60%
    09:00 +25°C° 0 mm 2 mps 747 mmHg 52%
    10:00 +27°C° 0 mm 3 mps 747 mmHg 44%
    11:00 +26°C° 0.1 mm 2 mps 747 mmHg 50%
    12:00 +26°C° 0.1 mm 2 mps 746 mmHg 56%
    13:00 +25°C° 0.1 mm 2 mps 746 mmHg 62%
    14:00 +24°C° 0.2 mm 2 mps 746 mmHg 64%
    15:00 +24°C° 0.2 mm 2 mps 746 mmHg 66%
    16:00 +23°C° 0.2 mm 2 mps 746 mmHg 68%
    17:00 +21°C° 0.3 mm 2 mps 747 mmHg 74%
    18:00 +21°C° 0.3 mm 1 mps 747 mmHg 80%
    19:00 +19°C° 0.3 mm 1 mps 747 mmHg 87%
    20:00 +18°C° 0 mm 1 mps 748 mmHg 90%
    21:00 +15°C° 0 mm 0 mps 748 mmHg 93%
    22:00 +14°C° 0 mm 0 mps 748 mmHg 97%
    23:00 +13°C° 0 mm 0 mps 748 mmHg 97%

    25 November, Saturday

    Time Temperature Precipitation Wind Pressure Humidity
    00:00 +13°C° 0 mm 0 mps 748 mmHg 97%
    01:00 +13°C° 0 mm 1 mps 748 mmHg 98%
    02:00 +13°C° 0 mm 1 mps 748 mmHg 98%
    03:00 +13°C° 0 mm 1 mps 748 mmHg 98%
    04:00 +13°C° 0 mm 1 mps 748 mmHg 98%
    05:00 +14°C° 0 mm 1 mps 749 mmHg 95%
    06:00 +16°C° 0 mm 1 mps 749 mmHg 91%
    07:00 +18°C° 0 mm 1 mps 750 mmHg 88%
    08:00 +19°C° 0 mm 1 mps 750 mmHg 83%
    09:00 +20°C° 0 mm 1 mps 750 mmHg 79%
    10:00 +20°C° 0 mm 2 mps 750 mmHg 74%
    11:00 +21°C° 0 mm 2 mps 750 mmHg 71%
    12:00 +21°C° 0 mm 2 mps 749 mmHg 69%
    13:00 +23°C° 0 mm 2 mps 749 mmHg 66%
    14:00 +23°C° 0.2 mm 2 mps 749 mmHg 69%
    15:00 +21°C° 0.2 mm 2 mps 749 mmHg 72%
    16:00 +21°C° 0.2 mm 2 mps 749 mmHg 76%
    17:00 +20°C° 0.1 mm 2 mps 749 mmHg 80%
    18:00 +19°C° 0.1 mm 2 mps 750 mmHg 84%
    19:00 +18°C° 0.1 mm 2 mps 750 mmHg 89%
    20:00 +17°C° 0 mm 2 mps 750 mmHg 91%
    21:00 +17°C° 0 mm 2 mps 750 mmHg 94%
    22:00 +16°C° 0 mm 2 mps 750 mmHg 96%
    23:00 +16°C° 0 mm 2 mps 750 mmHg 97%

    26 November, Sunday

    Time Temperature Precipitation Wind Pressure Humidity
    00:00 +16°C° 0 mm 2 mps 749 mmHg 98%
    01:00 +15°C° 0 mm 2 mps 749 mmHg 99%
    02:00 +15°C° 0 mm 2 mps 749 mmHg 98%
    03:00 +16°C° 0 mm 2 mps 749 mmHg 98%
    04:00 +16°C° 0 mm 2 mps 748 mmHg 98%
    05:00 +17°C° 0 mm 2 mps 749 mmHg 94%
    06:00 +17°C° 0 mm 2 mps 749 mmHg 91%
    07:00 +18°C° 0 mm 2 mps 749 mmHg 87%
    08:00 +21°C° 0 mm 2 mps 748 mmHg 76%
    09:00 +24°C° 0 mm 2 mps 748 mmHg 65%
    10:00 +26°C° 0 mm 3 mps 748 mmHg 55%
    11:00 +28°C° 0 mm 3 mps 747 mmHg 49%
    12:00 +29°C° 0 mm 4 mps 747 mmHg 43%
    13:00 +32°C° 0 mm 4 mps 746 mmHg 37%
    14:00 +30°C° 0.1 mm 4 mps 746 mmHg 44%
    15:00 +29°C° 0.1 mm 5 mps 745 mmHg 50%
    16:00 +27°C° 0.1 mm 5 mps 745 mmHg 57%
    17:00 +26°C° 0.6 mm 5 mps 745 mmHg 61%
    18:00 +25°C° 0.6 mm 5 mps 745 mmHg 64%
    19:00 +25°C° 0.6 mm 4 mps 745 mmHg 68%
    20:00 +22°C° 0 mm 4 mps 745 mmHg 71%
    21:00 +21°C° 0 mm 4 mps 745 mmHg 75%
    22:00 +19°C° 0 mm 4 mps 745 mmHg 78%
    23:00 +19°C° 0 mm 4 mps 744 mmHg 80%
    Show more